Location: Coopersdale
(40.3556°N, 78.9372°W)
Time: 07:52:53
(UTC+00:00)

Tiros 1 - Pass Details

Date: 28 January 2021
Orbit: 630 x 664 km, 48.4° (Epoch: 05 March)

Event Time Altitude Azimuth Distance (km) Brightness Sun altitude
Rises 00:02:08 0° 280° (W) 2,930 11.9 -17.9°
Reaches altitude 10° 00:04:41 10° 291° (WNW) 2,017 10.6 -18.4°
Maximum altitude 00:08:49 31° 353° (N) 1,114 8.3 -19.2°
Enters shadow 00:10:14 26° 26° (NNE) 1,252 8.3 -19.4°
